RPC9307 RPMZ-RPMY

Flight info

Callsign RPC9307
Flight time N/A
Altitude 5000
Route RPMY
Aircraft BE58/L-SDFGRY/C

Departure

Time 2026-04-15 17:10
Airport Zamboanga International Airport (RPMZ)

Arrival

Time N/A
Airport Laguindingan International Airport (RPMY)
Time Latitude Longitude Altitude Speed Heading
2026-04-15 17:03 6.92058 122.06078 31 ft 0 kts 152°
2026-04-15 17:07 6.92050 122.06075 29 ft 5 kts 244°
2026-04-15 17:07 6.92113 122.06054 29 ft 12 kts 339°
2026-04-15 17:07 6.92125 122.06049 31 ft 3 kts 331°
2026-04-15 17:08 6.92203 122.05998 28 ft 25 kts 320°
2026-04-15 17:08 6.92245 122.05820 29 ft 32 kts 274°
2026-04-15 17:08 6.92268 122.05504 29 ft 61 kts 270°
2026-04-15 17:08 6.92279 122.05170 29 ft 19 kts 297°
2026-04-15 17:09 6.92287 122.05285 30 ft 46 kts 92°
2026-04-15 17:09 6.92254 122.05852 56 ft 108 kts 96°
2026-04-15 17:09 6.92168 122.06664 304 ft 124 kts 94°
2026-04-15 17:09 6.92056 122.07598 490 ft 145 kts 98°
2026-04-15 17:10 6.92015 122.08625 867 ft 144 kts 75°
2026-04-15 17:10 6.92545 122.09488 1179 ft 149 kts 53°
2026-04-15 17:10 6.93180 122.10327 1421 ft 152 kts 53°
2026-04-15 17:10 6.93813 122.11165 1690 ft 152 kts 53°
2026-04-15 17:11 6.94452 122.12014 1941 ft 152 kts 53°
2026-04-15 17:11 6.95090 122.12863 2186 ft 152 kts 53°
2026-04-15 17:11 6.95725 122.13711 2438 ft 151 kts 53°
2026-04-15 17:12 6.96981 122.15394 2918 ft 149 kts 53°
2026-04-15 17:12 6.97595 122.16219 3157 ft 148 kts 53°
2026-04-15 17:12 6.98213 122.17054 3375 ft 148 kts 53°
2026-04-15 17:12 6.98830 122.17888 3584 ft 149 kts 53°
2026-04-15 17:13 6.99449 122.18728 3790 ft 149 kts 53°
2026-04-15 17:13 7.00067 122.19569 3980 ft 150 kts 53°
2026-04-15 17:13 7.00687 122.20417 4176 ft 150 kts 53°
2026-04-15 17:13 7.01296 122.21251 4354 ft 150 kts 53°
2026-04-15 17:14 7.01921 122.22110 4541 ft 150 kts 53°
2026-04-15 17:14 7.02529 122.22949 4706 ft 151 kts 53°
2026-04-15 17:14 7.03147 122.23804 4874 ft 151 kts 54°
2026-04-15 17:14 7.03770 122.24667 4973 ft 156 kts 54°
2026-04-15 17:15 7.04423 122.25578 4982 ft 164 kts 54°
2026-04-15 17:15 7.05190 122.26444 4986 ft 170 kts 32°
2026-04-15 17:15 7.06265 122.26976 4990 ft 174 kts 32°
2026-04-15 17:15 7.07220 122.27730 4981 ft 176 kts 48°
2026-04-15 17:16 7.07970 122.28712 4989 ft 178 kts 54°
2026-04-15 17:16 7.08686 122.29739 4988 ft 180 kts 55°
2026-04-15 17:16 7.09397 122.30788 4988 ft 183 kts 56°
2026-04-15 17:16 7.10116 122.31864 4984 ft 186 kts 56°
2026-04-15 17:17 7.10831 122.32936 4985 ft 188 kts 56°
2026-04-15 17:17 7.11567 122.34033 4981 ft 189 kts 56°
2026-04-15 17:17 7.12303 122.35131 4982 ft 190 kts 56°
2026-04-15 17:17 7.13040 122.36231 4984 ft 190 kts 56°
2026-04-15 17:18 7.13782 122.37339 4983 ft 191 kts 56°
2026-04-15 17:18 7.14526 122.38448 4987 ft 191 kts 56°
2026-04-15 17:18 7.15473 122.39382 4979 ft 192 kts 35°
2026-04-15 17:18 7.16503 122.40228 4982 ft 191 kts 48°
2026-04-15 17:19 7.17320 122.41282 4978 ft 191 kts 54°
2026-04-15 17:19 7.18084 122.42355 4980 ft 191 kts 54°
2026-04-15 17:19 7.18848 122.43452 4982 ft 191 kts 55°
2026-04-15 17:19 7.19609 122.44549 4980 ft 191 kts 55°
2026-04-15 17:20 7.20373 122.45649 4980 ft 191 kts 55°
2026-04-15 17:20 7.20879 122.46376 4979 ft 191 kts 55°
2026-04-15 17:20 7.21901 122.47844 4983 ft 191 kts 55°
2026-04-15 17:20 7.22406 122.48571 4978 ft 191 kts 55°
2026-04-15 17:21 7.23170 122.49670 4977 ft 192 kts 55°
2026-04-15 17:21 7.23937 122.50772 4978 ft 192 kts 55°
2026-04-15 17:21 7.24703 122.51874 4976 ft 192 kts 55°
2026-04-15 17:21 7.25471 122.52979 4977 ft 192 kts 55°
2026-04-15 17:22 7.26240 122.54084 4979 ft 193 kts 55°
2026-04-15 17:22 7.27007 122.55188 4980 ft 192 kts 55°
2026-04-15 17:22 7.27776 122.56294 4977 ft 192 kts 55°
2026-04-15 17:22 7.28545 122.57399 4976 ft 193 kts 55°
2026-04-15 17:23 7.29316 122.58509 4977 ft 193 kts 55°
2026-04-15 17:23 7.30079 122.59607 4977 ft 193 kts 55°
2026-04-15 17:23 7.30850 122.60716 4980 ft 193 kts 55°
2026-04-15 17:23 7.31622 122.61827 4977 ft 193 kts 55°
2026-04-15 17:24 7.32395 122.62939 4977 ft 194 kts 55°
2026-04-15 17:24 7.33169 122.64053 4977 ft 194 kts 55°
2026-04-15 17:24 7.33943 122.65166 4974 ft 194 kts 55°
2026-04-15 17:24 7.34715 122.66277 4977 ft 193 kts 55°
2026-04-15 17:25 7.35485 122.67385 4975 ft 193 kts 55°
2026-04-15 17:25 7.36258 122.68497 4975 ft 193 kts 55°
2026-04-15 17:25 7.37031 122.69609 4977 ft 194 kts 55°
2026-04-15 17:25 7.37804 122.70721 4977 ft 194 kts 55°
2026-04-15 17:26 7.38576 122.71833 4977 ft 194 kts 55°
2026-04-15 17:26 7.39348 122.72943 4981 ft 193 kts 55°
2026-04-15 17:26 7.40121 122.74056 4977 ft 194 kts 55°
2026-04-15 17:26 7.40884 122.75154 4976 ft 193 kts 55°
2026-04-15 17:27 7.41653 122.76264 4977 ft 193 kts 55°
2026-04-15 17:27 7.42422 122.77377 4974 ft 193 kts 56°
2026-04-15 17:27 7.43188 122.78488 4972 ft 193 kts 56°
2026-04-15 17:27 7.43954 122.79602 4973 ft 193 kts 56°
2026-04-15 17:28 7.44718 122.80716 4973 ft 193 kts 56°
2026-04-15 17:28 7.45480 122.81830 4977 ft 193 kts 56°
2026-04-15 17:28 7.46242 122.82947 4976 ft 193 kts 56°
2026-04-15 17:28 7.47002 122.84065 4973 ft 194 kts 56°
2026-04-15 17:29 7.47762 122.85185 4972 ft 194 kts 56°
2026-04-15 17:29 7.48523 122.86309 4977 ft 194 kts 56°
2026-04-15 17:29 7.49282 122.87434 4973 ft 194 kts 56°
2026-04-15 17:29 7.50039 122.88559 4974 ft 194 kts 56°
2026-04-15 17:30 7.50797 122.89686 4976 ft 194 kts 56°
2026-04-15 17:30 7.51543 122.90802 4981 ft 194 kts 56°
2026-04-15 17:30 7.52299 122.91935 4978 ft 194 kts 56°
2026-04-15 17:30 7.53048 122.93064 4978 ft 194 kts 56°
2026-04-15 17:31 7.53797 122.94194 4978 ft 193 kts 56°
2026-04-15 17:31 7.54544 122.95324 4978 ft 193 kts 57°
2026-04-15 17:31 7.55286 122.96452 4972 ft 193 kts 56°
2026-04-15 17:31 7.56028 122.97580 4976 ft 193 kts 57°
2026-04-15 17:32 7.56766 122.98707 4977 ft 193 kts 57°
2026-04-15 17:32 7.57507 122.99843 4980 ft 194 kts 57°
2026-04-15 17:32 7.58239 123.00968 4981 ft 194 kts 57°
2026-04-15 17:32 7.58978 123.02107 4980 ft 194 kts 57°
2026-04-15 17:33 7.59716 123.03249 4979 ft 194 kts 57°
2026-04-15 17:33 7.60451 123.04391 4983 ft 194 kts 57°
2026-04-15 17:33 7.61189 123.05539 4980 ft 194 kts 57°
2026-04-15 17:33 7.61924 123.06685 4982 ft 194 kts 57°
2026-04-15 17:34 7.62645 123.07815 4983 ft 194 kts 57°
2026-04-15 17:34 7.63375 123.08962 4981 ft 194 kts 57°
2026-04-15 17:34 7.64100 123.10107 4982 ft 194 kts 57°
2026-04-15 17:34 7.64827 123.11256 4982 ft 194 kts 58°
2026-04-15 17:35 7.65553 123.12410 4982 ft 194 kts 58°
2026-04-15 17:35 7.66277 123.13563 4985 ft 194 kts 58°
2026-04-15 17:35 7.66997 123.14716 4985 ft 194 kts 58°
2026-04-15 17:35 7.67717 123.15872 4982 ft 194 kts 58°
2026-04-15 17:36 7.68424 123.17011 4983 ft 194 kts 57°
2026-04-15 17:36 7.69137 123.18165 4980 ft 193 kts 58°
2026-04-15 17:36 7.69845 123.19315 4979 ft 193 kts 58°
2026-04-15 17:36 7.70553 123.20469 4982 ft 194 kts 58°
2026-04-15 17:37 7.71260 123.21625 4983 ft 193 kts 58°
2026-04-15 17:37 7.71966 123.22781 4982 ft 193 kts 58°
2026-04-15 17:37 7.72670 123.23938 4981 ft 193 kts 58°
2026-04-15 17:37 7.73362 123.25081 4985 ft 193 kts 58°
2026-04-15 17:38 7.74064 123.26242 4986 ft 194 kts 59°
2026-04-15 17:38 7.74764 123.27405 4981 ft 194 kts 59°
2026-04-15 17:38 7.75462 123.28569 4982 ft 194 kts 59°
2026-04-15 17:38 7.76160 123.29736 4980 ft 194 kts 59°
2026-04-15 17:39 7.76857 123.30905 4984 ft 194 kts 59°
2026-04-15 17:39 7.77550 123.32074 4985 ft 194 kts 59°
2026-04-15 17:39 7.78240 123.33239 4984 ft 194 kts 59°
2026-04-15 17:39 7.78926 123.34404 4981 ft 193 kts 59°
2026-04-15 17:40 7.79613 123.35573 4982 ft 193 kts 59°
2026-04-15 17:40 7.80294 123.36737 4979 ft 193 kts 59°
2026-04-15 17:40 7.80976 123.37905 4980 ft 193 kts 59°
2026-04-15 17:40 7.81644 123.39056 4983 ft 192 kts 59°
2026-04-15 17:41 7.82320 123.40223 4983 ft 193 kts 59°
2026-04-15 17:41 7.82995 123.41394 4982 ft 193 kts 60°
2026-04-15 17:41 7.83668 123.42568 4983 ft 193 kts 60°
2026-04-15 17:41 7.84339 123.43741 4983 ft 193 kts 60°
2026-04-15 17:42 7.85010 123.44918 4983 ft 193 kts 60°
2026-04-15 17:42 7.85677 123.46095 4982 ft 193 kts 60°
2026-04-15 17:42 7.86342 123.47271 4985 ft 193 kts 60°
2026-04-15 17:42 7.86998 123.48437 4981 ft 193 kts 60°
2026-04-15 17:43 7.87659 123.49616 4981 ft 193 kts 60°
2026-04-15 17:43 7.88319 123.50796 4980 ft 193 kts 60°
2026-04-15 17:43 7.88976 123.51978 4981 ft 193 kts 60°
2026-04-15 17:43 7.89633 123.53164 4979 ft 193 kts 60°
2026-04-15 17:44 7.90284 123.54343 4981 ft 193 kts 60°
2026-04-15 17:44 7.90936 123.55528 4977 ft 192 kts 60°
2026-04-15 17:44 7.91582 123.56709 4982 ft 193 kts 60°
2026-04-15 17:44 7.92230 123.57897 4979 ft 193 kts 61°
2026-04-15 17:45 7.92933 123.59047 4977 ft 193 kts 47°
2026-04-15 17:45 7.94092 123.59658 4974 ft 194 kts 12°
2026-04-15 17:45 7.95425 123.59889 4980 ft 194 kts 11°
2026-04-15 17:45 7.96758 123.60130 4984 ft 195 kts 11°
2026-04-15 17:46 7.98097 123.60369 4982 ft 195 kts 11°
2026-04-15 17:46 7.99435 123.60608 4979 ft 195 kts 11°
2026-04-15 17:46 8.00767 123.60871 4981 ft 194 kts 16°
2026-04-15 17:46 8.02030 123.61345 4984 ft 194 kts 27°
2026-04-15 17:47 8.03171 123.62033 4984 ft 193 kts 37°
2026-04-15 17:47 8.04153 123.62952 4984 ft 193 kts 51°
2026-04-15 17:47 8.04960 123.64033 4986 ft 193 kts 54°
2026-04-15 17:47 8.05737 123.65134 4987 ft 192 kts 54°
2026-04-15 17:48 8.06506 123.66243 4984 ft 193 kts 54°
2026-04-15 17:48 8.07277 123.67354 4987 ft 193 kts 54°
2026-04-15 17:48 8.08048 123.68464 4986 ft 193 kts 54°
2026-04-15 17:48 8.08820 123.69574 4984 ft 193 kts 54°
2026-04-15 17:49 8.09593 123.70685 4989 ft 193 kts 54°
2026-04-15 17:49 8.10367 123.71798 4988 ft 193 kts 54°
2026-04-15 17:49 8.11139 123.72908 4987 ft 193 kts 55°
2026-04-15 17:49 8.11899 123.74001 4986 ft 192 kts 54°
2026-04-15 17:50 8.12667 123.75107 4985 ft 192 kts 54°
2026-04-15 17:50 8.13436 123.76213 4979 ft 193 kts 54°
2026-04-15 17:50 8.14206 123.77320 4984 ft 192 kts 54°
2026-04-15 17:50 8.14975 123.78426 4985 ft 193 kts 54°
2026-04-15 17:51 8.15744 123.79533 4984 ft 193 kts 54°
2026-04-15 17:51 8.16516 123.80644 4983 ft 194 kts 54°
2026-04-15 17:51 8.17290 123.81757 4984 ft 194 kts 54°
2026-04-15 17:51 8.18065 123.82872 4987 ft 193 kts 54°
2026-04-15 17:52 8.18838 123.83984 4983 ft 193 kts 54°
2026-04-15 17:52 8.19610 123.85095 4985 ft 193 kts 54°
2026-04-15 17:52 8.20381 123.86204 4986 ft 193 kts 54°
2026-04-15 17:52 8.21151 123.87314 4981 ft 193 kts 54°
2026-04-15 17:53 8.21923 123.88424 4980 ft 193 kts 54°
2026-04-15 17:53 8.22693 123.89531 4981 ft 193 kts 54°
2026-04-15 17:53 8.23462 123.90638 4977 ft 193 kts 54°
2026-04-15 17:53 8.24222 123.91732 4978 ft 193 kts 54°
2026-04-15 17:54 8.24994 123.92843 4980 ft 193 kts 54°
2026-04-15 17:54 8.25766 123.93954 4979 ft 193 kts 54°
2026-04-15 17:54 8.26537 123.95065 4978 ft 193 kts 54°
2026-04-15 17:54 8.27308 123.96174 4974 ft 193 kts 54°
2026-04-15 17:55 8.28078 123.97282 4975 ft 192 kts 54°
2026-04-15 17:55 8.28849 123.98392 4974 ft 192 kts 54°
2026-04-15 17:55 8.29618 123.99499 4972 ft 192 kts 54°
2026-04-15 17:55 8.30377 124.00591 4971 ft 192 kts 54°
2026-04-15 17:56 8.31143 124.01694 4968 ft 192 kts 54°
2026-04-15 17:56 8.31910 124.02799 4970 ft 192 kts 54°
2026-04-15 17:56 8.32678 124.03904 4970 ft 192 kts 54°
2026-04-15 17:56 8.33446 124.05011 4971 ft 192 kts 54°
2026-04-15 17:57 8.34214 124.06116 4966 ft 192 kts 54°
2026-04-15 17:57 8.34982 124.07223 4969 ft 193 kts 54°
2026-04-15 17:57 8.35752 124.08331 4966 ft 193 kts 54°
2026-04-15 17:57 8.36523 124.09442 4968 ft 193 kts 54°
2026-04-15 17:58 8.37295 124.10553 4967 ft 193 kts 54°
2026-04-15 17:58 8.38066 124.11664 4968 ft 193 kts 54°
2026-04-15 17:58 8.38837 124.12774 4967 ft 193 kts 54°
2026-04-15 17:58 8.39611 124.13889 4967 ft 193 kts 54°
2026-04-15 17:59 8.40383 124.15000 4966 ft 193 kts 54°
2026-04-15 17:59 8.41155 124.16113 4963 ft 193 kts 54°
2026-04-15 17:59 8.41927 124.17225 4967 ft 193 kts 54°
2026-04-15 17:59 8.42698 124.18336 4965 ft 193 kts 54°
2026-04-15 18:00 8.43470 124.19448 4966 ft 193 kts 54°
2026-04-15 18:00 8.44242 124.20560 4960 ft 193 kts 54°
2026-04-15 18:00 8.45003 124.21656 4962 ft 193 kts 54°
2026-04-15 18:00 8.45777 124.22772 4960 ft 194 kts 54°
2026-04-15 18:01 8.46552 124.23887 4960 ft 194 kts 54°
2026-04-15 18:01 8.47327 124.25005 4961 ft 194 kts 54°
2026-04-15 18:01 8.48103 124.26124 4961 ft 194 kts 54°
2026-04-15 18:01 8.48877 124.27237 4956 ft 194 kts 54°
2026-04-15 18:02 8.49649 124.28350 4960 ft 194 kts 54°
2026-04-15 18:02 8.50424 124.29467 4957 ft 193 kts 54°
2026-04-15 18:02 8.51187 124.30567 4958 ft 193 kts 54°
2026-04-15 18:02 8.51959 124.31679 4957 ft 193 kts 54°
2026-04-15 18:03 8.52732 124.32793 4958 ft 193 kts 54°
2026-04-15 18:03 8.53505 124.33908 4958 ft 194 kts 54°
2026-04-15 18:03 8.54282 124.35028 4958 ft 195 kts 54°
2026-04-15 18:03 8.55059 124.36148 4952 ft 195 kts 54°
2026-04-15 18:04 8.55838 124.37272 4955 ft 195 kts 54°
2026-04-15 18:04 8.56617 124.38394 4957 ft 195 kts 54°
2026-04-15 18:04 8.57394 124.39515 4958 ft 195 kts 54°
2026-04-15 18:04 8.58172 124.40636 4952 ft 195 kts 54°
2026-04-15 18:05 8.58950 124.41756 4950 ft 194 kts 54°
2026-04-15 18:05 8.59463 124.42497 4949 ft 194 kts 54°
2026-04-15 18:05 8.60500 124.43992 4948 ft 194 kts 55°
2026-04-15 18:05 8.61264 124.45095 4958 ft 194 kts 54°
2026-04-15 18:06 8.62040 124.46214 4958 ft 194 kts 55°
2026-04-15 18:06 8.62814 124.47336 4955 ft 194 kts 55°
2026-04-15 18:06 8.63335 124.48093 4956 ft 195 kts 55°
2026-04-15 18:06 8.64099 124.49206 4956 ft 195 kts 55°
2026-04-15 18:07 8.64871 124.50334 4956 ft 195 kts 55°
2026-04-15 18:07 8.65901 124.51846 4959 ft 195 kts 55°
2026-04-15 18:07 8.66408 124.52593 4957 ft 195 kts 55°
2026-04-15 18:07 8.67423 124.54093 4956 ft 195 kts 56°
2026-04-15 18:08 8.67938 124.54855 4960 ft 195 kts 56°
2026-04-15 18:08 8.68690 124.55975 4960 ft 195 kts 56°
2026-04-15 18:08 8.69451 124.57110 4960 ft 195 kts 56°
2026-04-15 18:08 8.70209 124.58247 4960 ft 195 kts 56°
2026-04-15 18:09 8.70968 124.59387 4958 ft 195 kts 56°
2026-04-15 18:09 8.71724 124.60527 4958 ft 195 kts 56°
2026-04-15 18:09 8.72479 124.61669 4961 ft 195 kts 56°
2026-04-15 18:09 8.73233 124.62812 4963 ft 195 kts 56°
2026-04-15 18:10 8.73987 124.63958 4962 ft 196 kts 56°
2026-04-15 18:10 8.74739 124.65105 4962 ft 196 kts 57°
2026-04-15 18:10 8.75480 124.66238 4966 ft 195 kts 57°
2026-04-15 18:10 8.76229 124.67386 4963 ft 196 kts 57°
2026-04-15 18:11 8.76979 124.68539 4965 ft 195 kts 57°
2026-04-15 18:11 8.77725 124.69689 4963 ft 196 kts 57°
2026-04-15 18:11 8.78470 124.70841 4969 ft 196 kts 57°
2026-04-15 18:11 8.79214 124.71995 4970 ft 196 kts 57°
2026-04-15 18:12 8.79954 124.73147 4969 ft 195 kts 57°
2026-04-15 18:12 8.80694 124.74302 4968 ft 195 kts 57°
2026-04-15 18:12 8.81430 124.75453 4967 ft 195 kts 57°
2026-04-15 18:12 8.82165 124.76606 4966 ft 195 kts 57°
2026-04-15 18:13 8.82897 124.77757 4971 ft 195 kts 57°
2026-04-15 18:13 8.83620 124.78898 4971 ft 195 kts 57°
2026-04-15 18:13 8.84352 124.80057 4975 ft 195 kts 57°
2026-04-15 18:14 8.85809 124.82374 4969 ft 195 kts 58°
2026-04-15 18:14 8.86531 124.83527 4965 ft 193 kts 57°
2026-04-15 18:14 8.87249 124.84677 4971 ft 193 kts 58°
2026-04-15 18:14 8.87968 124.85830 4975 ft 195 kts 58°
2026-04-15 18:15 8.88689 124.86990 4971 ft 194 kts 58°
2026-04-15 18:15 8.89403 124.88143 4972 ft 193 kts 58°
2026-04-15 18:15 8.90114 124.89296 4970 ft 193 kts 58°
2026-04-15 18:15 8.90825 124.90452 4972 ft 194 kts 58°
2026-04-15 18:16 8.91529 124.91603 4975 ft 196 kts 58°
2026-04-15 18:16 8.92247 124.92779 4974 ft 197 kts 59°
2026-04-15 18:16 8.92967 124.93961 4971 ft 197 kts 58°
2026-04-15 18:16 8.93682 124.95141 4971 ft 196 kts 58°
2026-04-15 18:17 8.94394 124.96322 4971 ft 196 kts 58°
2026-04-15 18:17 8.95105 124.97505 4970 ft 196 kts 58°
2026-04-15 18:17 8.95811 124.98683 4971 ft 195 kts 58°
2026-04-15 18:17 8.96512 124.99860 4966 ft 195 kts 59°
2026-04-15 18:18 8.97212 125.01037 4967 ft 195 kts 59°
2026-04-15 18:18 8.97910 125.02217 4968 ft 195 kts 59°
2026-04-15 18:18 8.98606 125.03397 4965 ft 195 kts 59°
2026-04-15 18:18 8.99291 125.04563 4965 ft 195 kts 59°
2026-04-15 18:19 8.99984 125.05750 4964 ft 195 kts 59°
2026-04-15 18:19 9.00677 125.06939 4964 ft 195 kts 59°
2026-04-15 18:19 9.01366 125.08126 4965 ft 196 kts 59°
2026-04-15 18:19 9.02055 125.09318 4963 ft 196 kts 59°
2026-04-15 18:20 9.02740 125.10508 4962 ft 195 kts 59°
2026-04-15 18:20 9.03412 125.11681 4960 ft 195 kts 59°
2026-04-15 18:20 9.04091 125.12869 4964 ft 195 kts 59°
2026-04-15 18:20 9.04770 125.14064 4962 ft 196 kts 59°
2026-04-15 18:21 9.05447 125.15260 4964 ft 196 kts 59°
2026-04-15 18:21 9.06124 125.16459 4964 ft 196 kts 60°
2026-04-15 18:21 9.06797 125.17657 4961 ft 196 kts 60°
2026-04-15 18:21 9.07468 125.18857 4964 ft 196 kts 60°
2026-04-15 18:22 9.08137 125.20057 4957 ft 196 kts 60°
2026-04-15 18:22 9.08806 125.21260 4960 ft 196 kts 60°
2026-04-15 18:22 9.09471 125.22463 4960 ft 196 kts 60°
2026-04-15 18:22 9.10136 125.23670 4958 ft 196 kts 60°
2026-04-15 18:23 9.10798 125.24876 4960 ft 196 kts 60°
2026-04-15 18:23 9.11459 125.26083 4959 ft 196 kts 60°
2026-04-15 18:23 9.12117 125.27293 4959 ft 196 kts 60°
2026-04-15 18:23 9.12776 125.28507 4959 ft 196 kts 60°
2026-04-15 18:24 9.13432 125.29721 4959 ft 197 kts 60°
2026-04-15 18:24 9.14078 125.30922 4961 ft 197 kts 60°
2026-04-15 18:24 9.14731 125.32142 4960 ft 197 kts 60°
2026-04-15 18:24 9.15381 125.33360 4960 ft 196 kts 61°
2026-04-15 18:25 9.16028 125.34578 4962 ft 196 kts 61°
2026-04-15 18:25 9.16674 125.35799 4963 ft 196 kts 61°
2026-04-15 18:25 9.17317 125.37020 4962 ft 197 kts 61°
2026-04-15 18:25 9.17960 125.38244 4962 ft 197 kts 61°
2026-04-15 18:26 9.18601 125.39472 4964 ft 197 kts 61°
2026-04-15 18:26 9.19240 125.40699 4968 ft 197 kts 62°
2026-04-15 18:26 9.19867 125.41911 4966 ft 197 kts 62°
2026-04-15 18:26 9.20501 125.43140 4966 ft 197 kts 62°
2026-04-15 18:27 9.21133 125.44369 4967 ft 197 kts 62°
2026-04-15 18:27 9.21762 125.45597 4968 ft 197 kts 62°
2026-04-15 18:27 9.22392 125.46834 4971 ft 197 kts 62°
2026-04-15 18:27 9.23016 125.48066 4969 ft 197 kts 62°
2026-04-15 18:28 9.23639 125.49298 4976 ft 197 kts 62°
2026-04-15 18:28 9.24259 125.50530 4974 ft 196 kts 62°
2026-04-15 18:28 9.24877 125.51763 4977 ft 197 kts 63°
2026-04-15 18:28 9.25495 125.53001 4975 ft 197 kts 62°
2026-04-15 18:29 9.26113 125.54244 4977 ft 198 kts 63°
2026-04-15 18:29 9.26719 125.55469 4977 ft 197 kts 63°
2026-04-15 18:29 9.27328 125.56707 4976 ft 196 kts 63°
2026-04-15 18:29 9.27934 125.57943 4976 ft 194 kts 63°
2026-04-15 18:30 9.28534 125.59173 4982 ft 195 kts 63°
2026-04-15 18:30 9.29135 125.60410 4982 ft 197 kts 63°
2026-04-15 18:30 9.29738 125.61657 4985 ft 198 kts 63°
2026-04-15 18:30 9.30341 125.62911 4986 ft 198 kts 63°
2026-04-15 18:31 9.30942 125.64166 4977 ft 196 kts 63°
2026-04-15 18:31 9.31536 125.65414 4989 ft 197 kts 63°
2026-04-15 18:31 9.32129 125.66667 4977 ft 196 kts 64°
2026-04-15 18:31 9.32716 125.67913 4984 ft 196 kts 63°
2026-04-15 18:32 9.33297 125.69149 4986 ft 197 kts 64°
2026-04-15 18:32 9.33883 125.70404 4988 ft 197 kts 64°
2026-04-15 18:32 9.34466 125.71659 4982 ft 196 kts 64°
2026-04-15 18:32 9.35044 125.72903 4988 ft 194 kts 64°
2026-04-15 18:33 9.35617 125.74149 4989 ft 196 kts 64°
2026-04-15 18:33 9.36192 125.75404 4981 ft 197 kts 64°
2026-04-15 18:33 9.36766 125.76661 4983 ft 197 kts 64°
2026-04-15 18:33 9.37339 125.77926 4985 ft 198 kts 64°
2026-04-15 18:34 9.37910 125.79187 4986 ft 196 kts 64°
2026-04-15 18:34 9.38475 125.80442 4984 ft 195 kts 64°
2026-04-15 18:34 9.39035 125.81691 4984 ft 193 kts 65°
2026-04-15 18:34 9.39581 125.82917 4981 ft 194 kts 65°
2026-04-15 18:35 9.40134 125.84167 4983 ft 195 kts 65°
2026-04-15 18:35 9.40691 125.85432 4982 ft 197 kts 65°
2026-04-15 18:35 9.41249 125.86704 4976 ft 198 kts 65°
2026-04-15 18:35 9.41803 125.87976 4981 ft 197 kts 65°
2026-04-15 18:36 9.42355 125.89249 4979 ft 197 kts 65°
2026-04-15 18:36 9.42903 125.90519 4979 ft 197 kts 65°
2026-04-15 18:36 9.43449 125.91790 4979 ft 197 kts 65°
2026-04-15 18:36 9.43993 125.93061 4975 ft 197 kts 65°
2026-04-15 18:37 9.44530 125.94320 4975 ft 197 kts 66°
2026-04-15 18:37 9.45070 125.95593 4974 ft 197 kts 66°
2026-04-15 18:37 9.45608 125.96869 4973 ft 197 kts 66°
2026-04-15 18:37 9.46143 125.98145 4974 ft 197 kts 66°
2026-04-15 18:38 9.46676 125.99423 4971 ft 197 kts 66°
2026-04-15 18:38 9.47208 126.00702 4970 ft 197 kts 66°
2026-04-15 18:38 9.47738 126.01985 4974 ft 197 kts 66°
2026-04-15 18:38 9.48267 126.03271 4970 ft 197 kts 66°
2026-04-15 18:39 9.48794 126.04558 4971 ft 197 kts 66°
2026-04-15 18:39 9.49316 126.05842 4968 ft 197 kts 66°
2026-04-15 18:39 9.49835 126.07124 4969 ft 196 kts 66°
2026-04-15 18:39 9.50345 126.08392 4966 ft 197 kts 66°
2026-04-15 18:40 9.50861 126.09682 4964 ft 197 kts 67°
2026-04-15 18:40 9.51375 126.10972 4965 ft 197 kts 66°
2026-04-15 18:40 9.51887 126.12263 4963 ft 197 kts 67°
2026-04-15 18:40 9.52396 126.13552 4965 ft 196 kts 67°
2026-04-15 18:41 9.52901 126.14838 4966 ft 197 kts 67°
2026-04-15 18:41 9.53406 126.16128 4967 ft 197 kts 67°
2026-04-15 18:41 9.53907 126.17419 4961 ft 197 kts 67°
2026-04-15 18:41 9.54400 126.18695 4963 ft 197 kts 67°
2026-04-15 18:42 9.54896 126.19988 4960 ft 196 kts 68°
2026-04-15 18:42 9.55387 126.21278 4959 ft 196 kts 68°
2026-04-15 18:42 9.55878 126.22571 4959 ft 196 kts 68°
2026-04-15 18:42 9.56367 126.23866 4959 ft 197 kts 68°
2026-04-15 18:43 9.56852 126.25160 4961 ft 197 kts 68°
2026-04-15 18:43 9.57337 126.26461 4959 ft 197 kts 68°
2026-04-15 18:43 9.57821 126.27768 4960 ft 197 kts 68°
2026-04-15 18:43 9.58300 126.29074 4962 ft 197 kts 68°
2026-04-15 18:44 9.58775 126.30375 4954 ft 196 kts 68°
2026-04-15 18:44 9.59243 126.31659 4956 ft 196 kts 68°
2026-04-15 18:44 9.59711 126.32957 4959 ft 196 kts 68°
2026-04-15 18:44 9.60177 126.34259 4955 ft 197 kts 68°
2026-04-15 18:45 9.60648 126.35584 4959 ft 197 kts 69°
2026-04-15 18:45 9.61104 126.36878 4956 ft 197 kts 69°
2026-04-15 18:45 9.61562 126.38188 4954 ft 197 kts 69°
2026-04-15 18:45 9.62016 126.39499 4954 ft 197 kts 69°
2026-04-15 18:46 9.62468 126.40812 4954 ft 197 kts 69°
2026-04-15 18:46 9.62918 126.42125 4955 ft 198 kts 69°
2026-04-15 18:46 9.63367 126.43442 4956 ft 198 kts 69°
2026-04-15 18:46 9.63815 126.44760 4955 ft 197 kts 69°
2026-04-15 18:47 9.64257 126.46081 4955 ft 197 kts 69°
2026-04-15 18:47 9.64695 126.47394 4956 ft 197 kts 69°
2026-04-15 18:47 9.65129 126.48708 4956 ft 197 kts 70°
2026-04-15 18:47 9.65561 126.50028 4956 ft 198 kts 70°
2026-04-15 18:48 9.65987 126.51352 4958 ft 198 kts 70°
2026-04-15 18:48 9.66411 126.52682 4955 ft 198 kts 70°
2026-04-15 18:48 9.66831 126.54009 4955 ft 198 kts 71°
2026-04-15 18:48 9.67247 126.55337 4958 ft 197 kts 71°
2026-04-15 18:49 9.67652 126.56645 4955 ft 197 kts 70°
2026-04-15 18:49 9.68059 126.57971 4957 ft 197 kts 71°
2026-04-15 18:49 9.68464 126.59299 4956 ft 197 kts 71°
2026-04-15 18:49 9.68866 126.60625 4958 ft 197 kts 71°
2026-04-15 18:50 9.69264 126.61958 4960 ft 198 kts 71°
2026-04-15 18:50 9.69661 126.63298 4956 ft 197 kts 71°
2026-04-15 18:50 9.70054 126.64631 4958 ft 197 kts 71°
2026-04-15 18:50 9.70443 126.65970 4960 ft 198 kts 72°
2026-04-15 18:51 9.70698 126.66858 4958 ft 198 kts 72°
2026-04-15 18:51 9.71080 126.68198 4958 ft 198 kts 72°
2026-04-15 18:51 9.71462 126.69547 4955 ft 199 kts 72°
2026-04-15 18:51 9.71962 126.71332 4954 ft 198 kts 72°
2026-04-15 18:52 9.72212 126.72239 4953 ft 198 kts 72°
2026-04-15 18:52 9.72581 126.73580 4956 ft 198 kts 72°
2026-04-15 18:52 9.72942 126.74910 4958 ft 198 kts 72°
2026-04-15 18:52 9.73305 126.76261 4961 ft 199 kts 73°
2026-04-15 18:53 9.73664 126.77613 4957 ft 199 kts 73°
2026-04-15 18:53 9.74021 126.78969 4957 ft 199 kts 73°
2026-04-15 18:53 9.74373 126.80325 4957 ft 199 kts 73°
2026-04-15 18:53 9.74721 126.81681 4955 ft 199 kts 74°
2026-04-15 18:54 9.75066 126.83035 4958 ft 198 kts 73°
2026-04-15 18:54 9.75407 126.84389 4957 ft 198 kts 74°
2026-04-15 18:54 9.75746 126.85747 4957 ft 199 kts 74°
2026-04-15 18:54 9.76081 126.87109 4957 ft 199 kts 74°
2026-04-15 18:55 9.76412 126.88467 4957 ft 199 kts 74°
2026-04-15 18:55 9.76736 126.89817 4956 ft 199 kts 74°
2026-04-15 18:55 9.77059 126.91178 4960 ft 199 kts 74°
2026-04-15 18:55 9.77378 126.92543 4961 ft 199 kts 75°
2026-04-15 18:56 9.77695 126.93910 4960 ft 199 kts 75°
2026-04-15 18:56 9.78007 126.95280 4959 ft 200 kts 75°
2026-04-15 18:56 9.78315 126.96654 4959 ft 200 kts 75°
2026-04-15 18:56 9.78619 126.98028 4956 ft 199 kts 75°
2026-04-15 18:57 9.78919 126.99395 4952 ft 199 kts 75°
2026-04-15 18:57 9.79216 127.00767 4950 ft 199 kts 76°
2026-04-15 18:57 9.79509 127.02144 4954 ft 199 kts 76°
2026-04-15 18:57 9.79798 127.03521 4956 ft 200 kts 76°
2026-04-15 18:58 9.80079 127.04886 4958 ft 201 kts 76°
2026-04-15 18:58 9.80361 127.06270 4953 ft 201 kts 77°
2026-04-15 18:58 9.80640 127.07660 4954 ft 200 kts 76°
2026-04-15 18:58 9.80915 127.09046 4955 ft 200 kts 76°
2026-04-15 18:59 9.81186 127.10430 4953 ft 200 kts 76°
2026-04-15 18:59 9.81454 127.11815 4955 ft 200 kts 77°
2026-04-15 18:59 9.81718 127.13205 4954 ft 201 kts 77°
2026-04-15 18:59 9.81979 127.14595 4955 ft 201 kts 77°
2026-04-15 19:00 9.82236 127.15992 4953 ft 200 kts 78°
2026-04-15 19:00 9.82488 127.17383 4955 ft 200 kts 77°
2026-04-15 19:00 9.82737 127.18774 4952 ft 201 kts 78°
2026-04-15 19:00 9.82982 127.20166 4955 ft 201 kts 77°
2026-04-15 19:01 9.83220 127.21545 4954 ft 201 kts 78°
2026-04-15 19:01 9.83457 127.22947 4954 ft 201 kts 78°
2026-04-15 19:01 9.83688 127.24346 4953 ft 201 kts 78°
2026-04-15 19:01 9.83915 127.25745 4951 ft 200 kts 79°
2026-04-15 19:02 9.84138 127.27142 4953 ft 200 kts 79°
2026-04-15 19:02 9.84355 127.28538 4952 ft 200 kts 79°
2026-04-15 19:02 9.84569 127.29931 4954 ft 200 kts 79°
2026-04-15 19:02 9.84781 127.31331 4953 ft 201 kts 79°
2026-04-15 19:03 9.84987 127.32711 4956 ft 201 kts 79°
2026-04-15 19:03 9.85195 127.34137 4955 ft 201 kts 79°
2026-04-15 19:03 9.85395 127.35541 4950 ft 201 kts 79°
2026-04-15 19:03 9.85590 127.36926 4952 ft 201 kts 79°
2026-04-15 19:04 9.85783 127.38326 4956 ft 200 kts 80°
2026-04-15 19:04 9.85972 127.39728 4953 ft 200 kts 79°
2026-04-15 19:04 9.86158 127.41132 4955 ft 201 kts 80°
2026-04-15 19:04 9.86341 127.42538 4949 ft 201 kts 80°
2026-04-15 19:05 9.86520 127.43941 4950 ft 200 kts 80°
2026-04-15 19:05 9.86694 127.45343 4949 ft 200 kts 80°
2026-04-15 19:05 9.86863 127.46747 4952 ft 201 kts 80°
2026-04-15 19:05 9.87029 127.48157 4950 ft 201 kts 81°
2026-04-15 19:06 9.87192 127.49570 4950 ft 202 kts 81°
2026-04-15 19:06 9.87351 127.50983 4954 ft 202 kts 81°
2026-04-15 19:06 9.87504 127.52401 4954 ft 201 kts 82°
2026-04-15 19:06 9.87653 127.53814 4951 ft 201 kts 81°
2026-04-15 19:07 9.87796 127.55207 4953 ft 201 kts 82°
2026-04-15 19:07 9.87937 127.56616 4951 ft 201 kts 82°
2026-04-15 19:07 9.88074 127.58031 4952 ft 201 kts 82°
2026-04-15 19:07 9.88208 127.59448 4953 ft 202 kts 82°
2026-04-15 19:08 9.88339 127.60866 4950 ft 202 kts 83°
2026-04-15 19:08 9.88467 127.62288 4953 ft 202 kts 83°
2026-04-15 19:08 9.88590 127.63689 4949 ft 202 kts 82°
2026-04-15 19:08 9.88711 127.65109 4950 ft 202 kts 83°
2026-04-15 19:09 9.88827 127.66528 4951 ft 202 kts 82°
2026-04-15 19:09 9.88938 127.67944 4952 ft 201 kts 83°
2026-04-15 19:09 9.89043 127.69358 4956 ft 201 kts 83°
2026-04-15 19:09 9.89145 127.70774 4951 ft 201 kts 83°
2026-04-15 19:10 9.89242 127.72187 4951 ft 201 kts 83°
2026-04-15 19:10 9.89336 127.73599 4949 ft 201 kts 84°
2026-04-15 19:10 9.89427 127.75011 4951 ft 200 kts 83°
2026-04-15 19:10 9.89510 127.76406 4952 ft 201 kts 84°
2026-04-15 19:11 9.89594 127.77820 4955 ft 202 kts 84°
2026-04-15 19:11 9.89676 127.79241 4957 ft 202 kts 84°
2026-04-15 19:11 9.89753 127.80665 4952 ft 202 kts 84°
2026-04-15 19:11 9.89826 127.82091 4952 ft 202 kts 85°
2026-04-15 19:12 9.89894 127.83523 4950 ft 203 kts 84°
2026-04-15 19:12 9.89959 127.84952 4953 ft 203 kts 84°
2026-04-15 19:12 9.90021 127.86384 4949 ft 203 kts 84°
2026-04-15 19:12 9.90078 127.87814 4948 ft 203 kts 84°
2026-04-15 19:13 9.90131 127.89242 4951 ft 201 kts 84°
2026-04-15 19:13 9.90178 127.90642 4947 ft 201 kts 85°
2026-04-15 19:13 9.90220 127.92062 4949 ft 201 kts 86°
2026-04-15 19:13 9.90260 127.93477 4950 ft 201 kts 85°
2026-04-15 19:14 9.90296 127.94895 4950 ft 201 kts 85°
2026-04-15 19:14 9.90329 127.96312 4950 ft 201 kts 85°
2026-04-15 19:14 9.90358 127.97733 4950 ft 201 kts 86°
2026-04-15 19:14 9.90383 127.99149 4950 ft 200 kts 86°
2026-04-15 19:15 9.90403 128.00562 4953 ft 201 kts 86°
2026-04-15 19:15 9.90420 128.01985 4953 ft 202 kts 87°
2026-04-15 19:15 9.90432 128.03409 4953 ft 202 kts 86°
2026-04-15 19:15 9.90440 128.04836 4952 ft 202 kts 86°
2026-04-15 19:16 9.90445 128.06241 4953 ft 202 kts 86°
2026-04-15 19:16 9.90445 128.07664 4954 ft 202 kts 86°
2026-04-15 19:16 9.90443 128.09087 4953 ft 202 kts 88°
2026-04-15 19:16 9.90437 128.10513 4947 ft 202 kts 87°
2026-04-15 19:17 9.90428 128.11939 4950 ft 202 kts 88°
2026-04-15 19:17 9.90415 128.13361 4946 ft 202 kts 88°
2026-04-15 19:17 9.90398 128.14785 4945 ft 202 kts 88°
2026-04-15 19:17 9.90380 128.16211 4950 ft 202 kts 88°
2026-04-15 19:18 9.90356 128.17642 4946 ft 203 kts 88°
2026-04-15 19:18 9.90329 128.19076 4951 ft 203 kts 88°
2026-04-15 19:18 9.90261 128.21937 4951 ft 202 kts 89°
2026-04-15 19:19 9.90220 128.23367 4948 ft 202 kts 89°
2026-04-15 19:19 9.90175 128.24794 4949 ft 203 kts 88°
2026-04-15 19:19 9.90125 128.26224 4952 ft 202 kts 89°
2026-04-15 19:19 9.90073 128.27646 4949 ft 202 kts 89°
2026-04-15 19:20 9.90016 128.29064 4945 ft 201 kts 89°
2026-04-15 19:20 9.89955 128.30462 4950 ft 201 kts 89°
2026-04-15 19:20 9.89890 128.31877 4951 ft 201 kts 90°
2026-04-15 19:20 9.89819 128.33292 4947 ft 201 kts 89°
2026-04-15 19:21 9.89744 128.34710 4952 ft 201 kts 90°
2026-04-15 19:21 9.89666 128.36129 4950 ft 201 kts 90°
2026-04-15 19:21 9.89585 128.37547 4952 ft 202 kts 90°
2026-04-15 19:21 9.89500 128.38968 4957 ft 202 kts 91°
2026-04-15 19:22 9.89412 128.40377 4952 ft 202 kts 90°
2026-04-15 19:22 9.89318 128.41808 4952 ft 203 kts 91°
2026-04-15 19:22 9.89221 128.43234 4952 ft 203 kts 92°
2026-04-15 19:22 9.89120 128.44660 4952 ft 203 kts 91°
2026-04-15 19:23 9.89014 128.46086 4953 ft 203 kts 91°
2026-04-15 19:23 9.88904 128.47510 4953 ft 203 kts 91°
2026-04-15 19:23 9.88789 128.48939 4949 ft 203 kts 91°
2026-04-15 19:23 9.88671 128.50365 4947 ft 203 kts 91°
2026-04-15 19:24 9.88551 128.51787 4944 ft 202 kts 91°
2026-04-15 19:24 9.88426 128.53204 4946 ft 202 kts 93°
2026-04-15 19:24 9.88299 128.54601 4947 ft 202 kts 92°
2026-04-15 19:24 9.88166 128.56023 4946 ft 202 kts 93°
2026-04-15 19:25 9.88030 128.57440 4945 ft 202 kts 93°
2026-04-15 19:25 9.87891 128.58859 4948 ft 202 kts 93°
2026-04-15 19:25 9.87749 128.60274 4946 ft 201 kts 93°
2026-04-15 19:25 9.87603 128.61687 4946 ft 201 kts 93°
2026-04-15 19:26 9.87452 128.63099 4948 ft 201 kts 94°
2026-04-15 19:26 9.87297 128.64512 4949 ft 202 kts 94°
2026-04-15 19:26 9.87139 128.65930 4946 ft 202 kts 93°
2026-04-15 19:26 9.86977 128.67327 4946 ft 202 kts 94°
2026-04-15 19:27 9.86810 128.68740 4950 ft 202 kts 93°
2026-04-15 19:27 9.86640 128.70153 4947 ft 201 kts 94°
2026-04-15 19:27 9.86466 128.71563 4946 ft 202 kts 94°
2026-04-15 19:27 9.86286 128.72980 4946 ft 202 kts 94°
2026-04-15 19:28 9.86105 128.74379 4948 ft 202 kts 94°
2026-04-15 19:28 9.85918 128.75791 4949 ft 202 kts 95°
2026-04-15 19:28 9.85726 128.77205 4945 ft 202 kts 95°
2026-04-15 19:28 9.85532 128.78615 4949 ft 202 kts 95°
2026-04-15 19:29 9.85335 128.80025 4947 ft 202 kts 95°
2026-04-15 19:29 9.85133 128.81441 4948 ft 203 kts 95°
2026-04-15 19:29 9.84927 128.82858 4947 ft 203 kts 95°
2026-04-15 19:29 9.84716 128.84276 4948 ft 204 kts 96°
2026-04-15 19:30 9.84502 128.85693 4948 ft 203 kts 96°
2026-04-15 19:30 9.84283 128.87106 4950 ft 203 kts 96°
2026-04-15 19:30 9.84059 128.88523 4950 ft 203 kts 95°
2026-04-15 19:30 9.83831 128.89935 4951 ft 202 kts 97°
2026-04-15 19:31 9.83602 128.91328 4949 ft 203 kts 96°
2026-04-15 19:31 9.83366 128.92739 4949 ft 204 kts 97°
2026-04-15 19:31 9.83126 128.94154 4950 ft 203 kts 97°
2026-04-15 19:31 9.82883 128.95564 4950 ft 203 kts 97°
2026-04-15 19:32 9.82634 128.96982 4947 ft 204 kts 97°
2026-04-15 19:32 9.82380 128.98399 4950 ft 204 kts 97°
2026-04-15 19:32 9.82120 128.99818 4949 ft 205 kts 98°
2026-04-15 19:32 9.81857 129.01236 4946 ft 204 kts 98°
2026-04-15 19:33 9.81592 129.02653 4950 ft 205 kts 97°
2026-04-15 19:33 9.81323 129.04072 4950 ft 205 kts 97°
2026-04-15 19:33 9.81052 129.05489 4949 ft 205 kts 98°
2026-04-15 19:33 9.80777 129.06911 4947 ft 206 kts 98°
2026-04-15 19:34 9.80499 129.08331 4949 ft 205 kts 98°
2026-04-15 19:34 9.80218 129.09753 4947 ft 206 kts 98°
2026-04-15 19:34 9.79937 129.11158 4949 ft 206 kts 98°
2026-04-15 19:34 9.79648 129.12580 4951 ft 206 kts 98°
2026-04-15 19:35 9.79359 129.14000 4950 ft 205 kts 98°
2026-04-15 19:35 9.79065 129.15420 4948 ft 205 kts 99°
2026-04-15 19:35 9.78769 129.16836 4950 ft 205 kts 98°
2026-04-15 19:35 9.78471 129.18246 4951 ft 205 kts 98°
2026-04-15 19:36 9.78168 129.19656 4948 ft 204 kts 100°
2026-04-15 19:36 9.77966 129.20588 4953 ft 204 kts 99°
2026-04-15 19:36 9.77557 129.22454 4949 ft 204 kts 100°
2026-04-15 19:36 9.77246 129.23854 4947 ft 204 kts 99°
2026-04-15 19:37 9.76930 129.25259 4949 ft 204 kts 100°
2026-04-15 19:37 9.76613 129.26659 4946 ft 203 kts 100°
2026-04-15 19:37 9.76294 129.28056 4946 ft 203 kts 100°
2026-04-15 19:37 9.76080 129.28980 4945 ft 203 kts 101°
2026-04-15 19:38 9.75756 129.30377 4949 ft 204 kts 100°
2026-04-15 19:38 9.75428 129.31783 4951 ft 204 kts 100°
2026-04-15 19:38 9.75098 129.33186 4947 ft 205 kts 100°
2026-04-15 19:38 9.74765 129.34595 4944 ft 206 kts 100°
2026-04-15 19:39 9.74427 129.36002 4947 ft 205 kts 101°
2026-04-15 19:39 9.73972 129.37867 4945 ft 206 kts 101°
2026-04-15 19:39 9.73740 129.38818 4945 ft 206 kts 101°
2026-04-15 19:39 9.73394 129.40227 4949 ft 206 kts 101°
2026-04-15 19:40 9.73052 129.41613 4947 ft 205 kts 101°
2026-04-15 19:40 9.72703 129.43019 4948 ft 206 kts 102°
2026-04-15 19:40 9.72351 129.44426 4949 ft 205 kts 101°
2026-04-15 19:40 9.71997 129.45828 4945 ft 205 kts 101°
2026-04-15 19:41 9.71641 129.47228 4947 ft 205 kts 101°
2026-04-15 19:41 9.71284 129.48624 4948 ft 205 kts 101°
2026-04-15 19:41 9.70924 129.50021 4948 ft 205 kts 102°
2026-04-15 19:41 9.70560 129.51417 4948 ft 205 kts 102°
2026-04-15 19:42 9.70195 129.52816 4943 ft 205 kts 102°
2026-04-15 19:42 9.69834 129.54192 4945 ft 204 kts 102°
2026-04-15 19:42 9.69463 129.55582 4947 ft 205 kts 102°
2026-04-15 19:42 9.69090 129.56975 4947 ft 205 kts 102°
2026-04-15 19:43 9.68715 129.58364 4947 ft 204 kts 101°
2026-04-15 19:43 9.68337 129.59754 4946 ft 204 kts 102°
2026-04-15 19:43 9.67955 129.61143 4949 ft 205 kts 103°
2026-04-15 19:43 9.67569 129.62538 4943 ft 206 kts 102°
2026-04-15 19:44 9.67180 129.63933 4946 ft 205 kts 102°
2026-04-15 19:44 9.66786 129.65330 4948 ft 206 kts 103°
2026-04-15 19:44 9.66390 129.66727 4946 ft 206 kts 103°
2026-04-15 19:44 9.65991 129.68117 4948 ft 205 kts 103°
2026-04-15 19:45 9.65595 129.69488 4944 ft 206 kts 103°
2026-04-15 19:45 9.65190 129.70880 4948 ft 205 kts 102°
2026-04-15 19:45 9.64782 129.72267 4946 ft 205 kts 103°
2026-04-15 19:45 9.64369 129.73653 4946 ft 205 kts 104°
2026-04-15 19:46 9.63954 129.75040 4946 ft 205 kts 103°
2026-04-15 19:46 9.63539 129.76421 4945 ft 205 kts 104°
2026-04-15 19:46 9.63121 129.77805 4945 ft 205 kts 104°
2026-04-15 19:46 9.62698 129.79189 4946 ft 205 kts 104°
2026-04-15 19:47 9.62273 129.80568 4945 ft 205 kts 104°
2026-04-15 19:47 9.61844 129.81946 4943 ft 205 kts 104°
2026-04-15 19:47 9.61414 129.83319 4943 ft 205 kts 105°
2026-04-15 19:47 9.60978 129.84693 4947 ft 205 kts 104°
2026-04-15 19:48 9.60540 129.86068 4946 ft 205 kts 104°
2026-04-15 19:48 9.60101 129.87443 4944 ft 204 kts 105°
2026-04-15 19:48 9.59660 129.88815 4949 ft 205 kts 105°
2026-04-15 19:48 9.59220 129.90173 4947 ft 205 kts 105°
2026-04-15 19:49 9.58774 129.91543 4944 ft 205 kts 105°
2026-04-15 19:49 9.58324 129.92915 4950 ft 205 kts 105°
2026-04-15 19:49 9.57872 129.94287 4946 ft 205 kts 105°
2026-04-15 19:49 9.57417 129.95656 4947 ft 205 kts 105°
2026-04-15 19:50 9.56956 129.97028 4947 ft 205 kts 107°
2026-04-15 19:50 9.56492 129.98397 4946 ft 205 kts 105°
2026-04-15 19:50 9.56026 129.99762 4948 ft 205 kts 106°
2026-04-15 19:50 9.55559 130.01124 4950 ft 205 kts 105°
2026-04-15 19:51 9.55095 130.02473 4947 ft 205 kts 106°
2026-04-15 19:51 9.54622 130.03838 4950 ft 205 kts 106°
2026-04-15 19:51 9.54146 130.05202 4948 ft 206 kts 106°
2026-04-15 19:51 9.53667 130.06573 4944 ft 206 kts 107°
2026-04-15 19:52 9.53187 130.07942 4945 ft 206 kts 107°
2026-04-15 19:52 9.52701 130.09316 4945 ft 206 kts 107°
2026-04-15 19:52 9.52216 130.10683 4944 ft 206 kts 107°
2026-04-15 19:52 9.51726 130.12048 4944 ft 206 kts 107°
2026-04-15 19:53 9.51240 130.13397 4943 ft 206 kts 106°
2026-04-15 19:53 9.50745 130.14758 4941 ft 205 kts 108°
2026-04-15 19:53 9.50252 130.16110 4943 ft 205 kts 107°
2026-04-15 19:53 9.49752 130.17468 4942 ft 205 kts 107°
2026-04-15 19:54 9.49250 130.18824 4941 ft 205 kts 108°
2026-04-15 19:54 9.48743 130.20180 4942 ft 206 kts 108°
2026-04-15 19:54 9.48234 130.21537 4942 ft 206 kts 108°
2026-04-15 19:54 9.47721 130.22891 4944 ft 206 kts 108°
2026-04-15 19:55 9.47204 130.24246 4939 ft 206 kts 108°
2026-04-15 19:55 9.46682 130.25597 4943 ft 206 kts 108°
2026-04-15 19:55 9.46158 130.26951 4944 ft 207 kts 109°
2026-04-15 19:55 9.45629 130.28307 4941 ft 207 kts 108°
2026-04-15 19:56 9.45100 130.29664 4942 ft 207 kts 109°
2026-04-15 19:56 9.44569 130.31024 4943 ft 208 kts 108°
2026-04-15 19:56 9.44032 130.32390 4939 ft 208 kts 108°
2026-04-15 19:56 9.43495 130.33749 4942 ft 208 kts 110°
2026-04-15 19:57 9.42953 130.35110 4940 ft 208 kts 109°
2026-04-15 19:57 9.42409 130.36468 4941 ft 208 kts 109°
2026-04-15 19:57 9.41868 130.37808 4942 ft 207 kts 109°
2026-04-15 19:57 9.41317 130.39160 4941 ft 207 kts 109°
2026-04-15 19:58 9.40764 130.40508 4941 ft 207 kts 110°
2026-04-15 19:58 9.40208 130.41854 4941 ft 207 kts 110°
2026-04-15 19:58 9.39648 130.43200 4942 ft 207 kts 110°
2026-04-15 19:58 9.39087 130.44539 4942 ft 206 kts 110°
2026-04-15 19:59 9.38526 130.45876 4942 ft 206 kts 110°
2026-04-15 19:59 9.37965 130.47209 4945 ft 206 kts 110°
2026-04-15 19:59 9.37402 130.48546 4944 ft 207 kts 111°
2026-04-15 19:59 9.36836 130.49885 4941 ft 207 kts 110°
2026-04-15 20:00 9.36265 130.51220 4949 ft 207 kts 110°
2026-04-15 20:00 9.35690 130.52562 4943 ft 208 kts 111°
2026-04-15 20:00 9.35110 130.53909 4942 ft 208 kts 110°
2026-04-15 20:00 9.34536 130.55233 4944 ft 208 kts 111°
2026-04-15 20:01 9.33951 130.56573 4943 ft 208 kts 111°
2026-04-15 20:01 9.33362 130.57912 4945 ft 208 kts 111°
2026-04-15 20:01 9.32769 130.59252 4942 ft 208 kts 111°
2026-04-15 20:01 9.32176 130.60588 4943 ft 208 kts 112°
2026-04-15 20:02 9.31579 130.61925 4944 ft 208 kts 112°
2026-04-15 20:02 9.30982 130.63259 4946 ft 208 kts 111°
2026-04-15 20:02 9.30378 130.64594 4941 ft 209 kts 112°
2026-04-15 20:02 9.29771 130.65932 4941 ft 210 kts 111°
2026-04-15 20:03 9.29161 130.67269 4940 ft 209 kts 112°
2026-04-15 20:03 9.28549 130.68602 4942 ft 208 kts 112°
2026-04-15 20:03 9.27934 130.69935 4942 ft 209 kts 112°
2026-04-15 20:03 9.27318 130.71266 4942 ft 209 kts 112°
2026-04-15 20:04 9.26699 130.72596 4937 ft 208 kts 112°
2026-04-15 20:04 9.26080 130.73921 4943 ft 208 kts 112°
2026-04-15 20:04 9.25458 130.75243 4943 ft 208 kts 113°
2026-04-15 20:04 9.24839 130.76551 4938 ft 208 kts 112°
2026-04-15 20:05 9.24212 130.77868 4938 ft 207 kts 112°
2026-04-15 20:05 9.23583 130.79183 4938 ft 208 kts 113°
2026-04-15 20:05 9.22948 130.80499 4935 ft 208 kts 113°
2026-04-15 20:05 9.22308 130.81819 4943 ft 209 kts 112°
2026-04-15 20:06 9.21666 130.83140 4946 ft 209 kts 113°
2026-04-15 20:06 9.21021 130.84458 4946 ft 209 kts 114°
2026-04-15 20:06 9.20372 130.85776 4944 ft 210 kts 113°
2026-04-15 20:06 9.19720 130.87097 4943 ft 209 kts 114°
2026-04-15 20:07 9.19067 130.88415 4945 ft 209 kts 114°
2026-04-15 20:07 9.18411 130.89728 4944 ft 209 kts 114°
2026-04-15 20:07 9.17753 130.91036 4942 ft 209 kts 114°
2026-04-15 20:07 9.17101 130.92328 4943 ft 209 kts 113°
2026-04-15 20:08 9.16439 130.93633 4942 ft 208 kts 115°
2026-04-15 20:08 9.15773 130.94936 4946 ft 209 kts 115°
2026-04-15 20:08 9.15102 130.96239 4945 ft 209 kts 115°
2026-04-15 20:08 9.14429 130.97541 4944 ft 209 kts 115°
2026-04-15 20:09 9.13751 130.98848 4948 ft 210 kts 115°
2026-04-15 20:09 9.13066 131.00160 4943 ft 210 kts 115°
2026-04-15 20:09 9.12380 131.01464 4943 ft 209 kts 115°
2026-04-15 20:09 9.11694 131.02761 4943 ft 209 kts 116°
2026-04-15 20:10 9.11012 131.04044 4944 ft 210 kts 116°
2026-04-15 20:10 9.10317 131.05344 4943 ft 209 kts 116°
2026-04-15 20:10 9.09622 131.06637 4943 ft 209 kts 116°
2026-04-15 20:10 9.08925 131.07925 4941 ft 209 kts 116°
2026-04-15 20:11 9.08225 131.09212 4940 ft 209 kts 116°
2026-04-15 20:11 9.07522 131.10498 4943 ft 209 kts 116°
2026-04-15 20:11 9.06816 131.11782 4941 ft 208 kts 116°
2026-04-15 20:11 9.06109 131.13059 4939 ft 208 kts 116°
2026-04-15 20:12 9.05400 131.14332 4941 ft 208 kts 117°
2026-04-15 20:12 9.04694 131.15593 4935 ft 209 kts 116°
2026-04-15 20:12 9.03976 131.16871 4936 ft 209 kts 116°
2026-04-15 20:12 9.03255 131.18147 4938 ft 208 kts 117°
2026-04-15 20:13 9.02533 131.19421 4936 ft 208 kts 116°
2026-04-15 20:13 9.01810 131.20688 4937 ft 208 kts 117°
2026-04-15 20:13 9.01081 131.21956 4941 ft 209 kts 117°
2026-04-15 20:13 9.00346 131.23227 4939 ft 209 kts 117°
2026-04-15 20:14 8.99611 131.24494 4938 ft 208 kts 117°
2026-04-15 20:14 8.98878 131.25752 4938 ft 207 kts 117°
2026-04-15 20:14 8.98140 131.27007 4938 ft 207 kts 118°
2026-04-15 20:14 8.97400 131.28262 4939 ft 208 kts 118°
2026-04-15 20:15 8.96664 131.29505 4940 ft 208 kts 118°
2026-04-15 20:15 8.95917 131.30760 4940 ft 209 kts 118°
2026-04-15 20:15 8.95164 131.32018 4942 ft 209 kts 118°
2026-04-15 20:15 8.94405 131.33278 4942 ft 209 kts 118°
2026-04-15 20:16 8.93641 131.34540 4943 ft 210 kts 118°
2026-04-15 20:16 8.92875 131.35803 4943 ft 211 kts 118°
2026-04-15 20:16 8.92116 131.37047 4943 ft 210 kts 119°
2026-04-15 20:16 8.91335 131.38319 4941 ft 210 kts 119°
2026-04-15 20:17 8.90570 131.39556 4941 ft 211 kts 119°
2026-04-15 20:17 8.89788 131.40813 4945 ft 211 kts 119°
2026-04-15 20:17 8.89002 131.42070 4945 ft 211 kts 120°
2026-04-15 20:17 8.88216 131.43325 4945 ft 211 kts 120°
2026-04-15 20:18 8.87427 131.44579 4948 ft 210 kts 120°
2026-04-15 20:18 8.86639 131.45822 4944 ft 210 kts 120°
2026-04-15 20:18 8.85849 131.47063 4944 ft 210 kts 120°
2026-04-15 20:18 8.85052 131.48305 4945 ft 210 kts 120°
2026-04-15 20:19 8.84254 131.49545 4945 ft 210 kts 120°
2026-04-15 20:19 8.83462 131.50769 4944 ft 211 kts 120°
2026-04-15 20:19 8.82655 131.52010 4942 ft 211 kts 120°
2026-04-15 20:19 8.81844 131.53252 4942 ft 212 kts 120°
2026-04-15 20:20 8.81029 131.54496 4946 ft 212 kts 121°
2026-04-15 20:20 8.80208 131.55744 4945 ft 213 kts 121°
2026-04-15 20:20 8.79385 131.56989 4945 ft 213 kts 121°
2026-04-15 20:20 8.78838 131.57814 4945 ft 213 kts 121°
2026-04-15 20:21 8.77733 131.59473 4943 ft 212 kts 121°
2026-04-15 20:21 8.77186 131.60289 4943 ft 211 kts 122°
2026-04-15 20:21 8.76087 131.61916 4943 ft 211 kts 121°
2026-04-15 20:21 8.75255 131.63140 4944 ft 211 kts 121°
2026-04-15 20:22 8.74422 131.64361 4943 ft 210 kts 122°
2026-04-15 20:22 8.73871 131.65165 4941 ft 210 kts 122°
2026-04-15 20:22 8.73034 131.66381 4940 ft 210 kts 122°
2026-04-15 20:22 8.72196 131.67595 4943 ft 211 kts 122°
2026-04-15 20:23 8.71066 131.69222 4943 ft 211 kts 122°
2026-04-15 20:23 8.70506 131.70027 4943 ft 211 kts 122°
2026-04-15 20:23 8.69658 131.71238 4942 ft 211 kts 122°
2026-04-15 20:23 8.68809 131.72445 4945 ft 211 kts 123°
2026-04-15 20:24 8.67955 131.73652 4943 ft 211 kts 123°
2026-04-15 20:24 8.66237 131.76065 4942 ft 212 kts 122°
2026-04-15 20:24 8.65372 131.77274 4946 ft 212 kts 123°
2026-04-15 20:25 8.64504 131.78482 4944 ft 212 kts 123°
2026-04-15 20:25 8.63636 131.79685 4942 ft 212 kts 123°
2026-04-15 20:25 8.62765 131.80885 4942 ft 212 kts 124°
2026-04-15 20:25 8.61892 131.82082 4945 ft 212 kts 124°
2026-04-15 20:26 8.61027 131.83263 4942 ft 212 kts 124°
2026-04-15 20:26 8.60145 131.84461 4942 ft 212 kts 124°
2026-04-15 20:26 8.59259 131.85659 4940 ft 212 kts 124°
2026-04-15 20:26 8.58372 131.86855 4942 ft 212 kts 125°
2026-04-15 20:27 8.57482 131.88047 4941 ft 212 kts 124°
2026-04-15 20:27 8.56590 131.89239 4941 ft 212 kts 125°
2026-04-15 20:27 8.55699 131.90426 4943 ft 212 kts 125°
2026-04-15 20:27 8.54806 131.91610 4941 ft 212 kts 125°
2026-04-15 20:28 8.53908 131.92794 4942 ft 212 kts 125°
2026-04-15 20:28 8.53006 131.93979 4943 ft 212 kts 125°
2026-04-15 20:28 8.52101 131.95163 4942 ft 213 kts 125°
2026-04-15 20:28 8.51205 131.96330 4943 ft 213 kts 126°
2026-04-15 20:29 8.50297 131.97509 4943 ft 212 kts 126°
2026-04-15 20:29 8.49390 131.98682 4944 ft 211 kts 126°
2026-04-15 20:29 8.48481 131.99851 4941 ft 211 kts 126°
2026-04-15 20:29 8.47571 132.01017 4938 ft 212 kts 126°
2026-04-15 20:30 8.46654 132.02188 4941 ft 212 kts 126°
2026-04-15 20:30 8.45734 132.03358 4940 ft 213 kts 126°
2026-04-15 20:30 8.44811 132.04528 4936 ft 213 kts 127°
2026-04-15 20:30 8.43885 132.05696 4942 ft 213 kts 127°
2026-04-15 20:31 8.42956 132.06862 4945 ft 213 kts 127°
2026-04-15 20:31 8.42024 132.08029 4945 ft 214 kts 127°
2026-04-15 20:31 8.41102 132.09181 4944 ft 213 kts 127°
2026-04-15 20:31 8.40167 132.10345 4945 ft 213 kts 127°
2026-04-15 20:32 8.39226 132.11509 4945 ft 214 kts 127°
2026-04-15 20:32 8.38285 132.12671 4943 ft 213 kts 128°
2026-04-15 20:32 8.37340 132.13831 4945 ft 214 kts 128°
2026-04-15 20:32 8.36390 132.14994 4944 ft 214 kts 128°
2026-04-15 20:33 8.35440 132.16151 4944 ft 214 kts 128°
2026-04-15 20:33 8.34487 132.17306 4944 ft 214 kts 128°
2026-04-15 20:33 8.33546 132.18443 4942 ft 214 kts 128°
2026-04-15 20:33 8.32589 132.19595 4943 ft 213 kts 128°
2026-04-15 20:34 8.31635 132.20738 4942 ft 212 kts 129°
2026-04-15 20:34 8.30674 132.21882 4945 ft 213 kts 129°
2026-04-15 20:34 8.28569 132.24369 4944 ft 213 kts 129°
2026-04-15 20:35 8.27603 132.25502 4942 ft 213 kts 129°
2026-04-15 20:35 8.26648 132.26621 4944 ft 213 kts 129°
2026-04-15 20:35 8.25673 132.27757 4942 ft 214 kts 129°
2026-04-15 20:35 8.24696 132.28889 4941 ft 213 kts 129°
2026-04-15 20:36 8.23722 132.30015 4941 ft 213 kts 129°
2026-04-15 20:36 8.22747 132.31137 4943 ft 213 kts 129°
2026-04-15 20:36 8.21766 132.32262 4944 ft 213 kts 130°
2026-04-15 20:36 8.20784 132.33381 4945 ft 213 kts 130°
2026-04-15 20:37 8.19802 132.34497 4943 ft 213 kts 130°
2026-04-15 20:37 8.18818 132.35610 4943 ft 212 kts 130°
2026-04-15 20:37 8.17830 132.36722 4941 ft 212 kts 130°
2026-04-15 20:37 8.16842 132.37829 4939 ft 212 kts 130°
2026-04-15 20:38 8.15852 132.38935 4940 ft 213 kts 130°
2026-04-15 20:38 8.14854 132.40043 4945 ft 213 kts 130°
2026-04-15 20:38 8.13854 132.41151 4943 ft 213 kts 131°
2026-04-15 20:38 8.12851 132.42257 4945 ft 213 kts 131°
2026-04-15 20:39 8.11858 132.43347 4944 ft 214 kts 131°
2026-04-15 20:39 8.10844 132.44455 4947 ft 214 kts 131°
2026-04-15 20:39 8.09827 132.45562 4945 ft 214 kts 132°
2026-04-15 20:39 8.08808 132.46665 4947 ft 215 kts 132°
2026-04-15 20:40 8.07791 132.47766 4945 ft 214 kts 132°
2026-04-15 20:40 8.06777 132.48857 4945 ft 213 kts 131°
2026-04-15 20:40 8.05760 132.49946 4947 ft 213 kts 132°
2026-04-15 20:40 8.04749 132.51024 4945 ft 214 kts 132°
2026-04-15 20:41 8.03721 132.52117 4947 ft 215 kts 132°
2026-04-15 20:41 8.02690 132.53210 4946 ft 215 kts 133°
2026-04-15 20:41 8.01655 132.54303 4946 ft 214 kts 132°
2026-04-15 20:41 8.00971 132.55022 4944 ft 213 kts 133°
2026-04-15 20:42 7.99941 132.56100 4944 ft 213 kts 133°
2026-04-15 20:42 7.98909 132.57176 4945 ft 214 kts 133°
2026-04-15 20:42 7.97872 132.58253 4945 ft 214 kts 133°
2026-04-15 20:42 7.96831 132.59330 4945 ft 214 kts 133°
2026-04-15 20:43 7.95789 132.60405 4948 ft 213 kts 133°
2026-04-15 20:43 7.94751 132.61469 4945 ft 213 kts 133°
2026-04-15 20:43 7.93710 132.62530 4943 ft 212 kts 134°
2026-04-15 20:43 7.92684 132.63573 4944 ft 212 kts 134°
2026-04-15 20:44 7.91642 132.64627 4944 ft 213 kts 134°
2026-04-15 20:44 7.90593 132.65683 4943 ft 213 kts 134°
2026-04-15 20:44 7.89540 132.66741 4943 ft 213 kts 134°
2026-04-15 20:44 7.88488 132.67792 4945 ft 213 kts 134°
2026-04-15 20:45 7.87429 132.68844 4945 ft 214 kts 134°
2026-04-15 20:45 7.86366 132.69898 4944 ft 214 kts 134°
2026-04-15 20:45 7.85299 132.70952 4944 ft 215 kts 135°
2026-04-15 20:45 7.84228 132.72005 4943 ft 215 kts 135°
2026-04-15 20:46 7.83165 132.73042 4945 ft 215 kts 135°
2026-04-15 20:46 7.82086 132.74092 4947 ft 215 kts 135°
2026-04-15 20:46 7.81007 132.75139 4946 ft 215 kts 135°
2026-04-15 20:46 7.79922 132.76184 4946 ft 215 kts 135°
2026-04-15 20:47 7.78840 132.77222 4946 ft 216 kts 136°
2026-04-15 20:47 7.77746 132.78267 4947 ft 216 kts 136°
2026-04-15 20:47 7.76650 132.79311 4947 ft 216 kts 136°
2026-04-15 20:47 7.75554 132.80351 4949 ft 216 kts 136°
2026-04-15 20:48 7.74460 132.81384 4945 ft 215 kts 136°
2026-04-15 20:48 7.73361 132.82416 4943 ft 215 kts 137°
2026-04-15 20:48 7.72264 132.83442 4944 ft 215 kts 136°
2026-04-15 20:48 7.71182 132.84450 4946 ft 214 kts 136°
2026-04-15 20:49 7.70086 132.85466 4946 ft 214 kts 137°
2026-04-15 20:49 7.68985 132.86483 4949 ft 214 kts 137°
2026-04-15 20:49 7.67888 132.87496 4948 ft 214 kts 137°
2026-04-15 20:49 7.66790 132.88509 4944 ft 214 kts 137°
2026-04-15 20:50 7.65693 132.89519 4941 ft 214 kts 137°
2026-04-15 20:50 7.64593 132.90530 4940 ft 213 kts 137°
2026-04-15 20:50 7.63497 132.91535 4942 ft 213 kts 137°
2026-04-15 20:50 7.62395 132.92544 4942 ft 214 kts 137°
2026-04-15 20:51 7.61291 132.93553 4942 ft 214 kts 137°
2026-04-15 20:51 7.60189 132.94559 4944 ft 214 kts 137°
2026-04-15 20:51 7.59083 132.95565 4939 ft 214 kts 137°
2026-04-15 20:51 7.57978 132.96566 4938 ft 213 kts 138°
2026-04-15 20:52 7.56873 132.97564 4940 ft 213 kts 138°
2026-04-15 20:52 7.55769 132.98555 4943 ft 212 kts 138°
2026-04-15 20:52 7.54663 132.99543 4942 ft 213 kts 138°
2026-04-15 20:52 7.53564 133.00521 4943 ft 213 kts 139°
2026-04-15 20:53 7.52447 133.01511 4944 ft 214 kts 139°
2026-04-15 20:53 7.51327 133.02498 4942 ft 214 kts 139°
2026-04-15 20:53 7.50203 133.03485 4945 ft 214 kts 138°
2026-04-15 20:53 7.49078 133.04468 4944 ft 214 kts 139°
2026-04-15 20:54 7.47952 133.05448 4942 ft 214 kts 139°
2026-04-15 20:54 7.46828 133.06424 4941 ft 213 kts 139°
2026-04-15 20:54 7.45702 133.07396 4939 ft 213 kts 139°
2026-04-15 20:54 7.44573 133.08365 4937 ft 213 kts 139°
2026-04-15 20:55 7.43441 133.09332 4942 ft 213 kts 140°
2026-04-15 20:55 7.42306 133.10298 4938 ft 213 kts 140°
2026-04-15 20:55 7.41182 133.11250 4941 ft 213 kts 140°
2026-04-15 20:55 7.40044 133.12210 4937 ft 213 kts 140°
2026-04-15 20:56 7.38901 133.13169 4935 ft 213 kts 140°
2026-04-15 20:56 7.37757 133.14126 4938 ft 213 kts 140°
2026-04-15 20:56 7.36613 133.15078 4937 ft 213 kts 141°
2026-04-15 20:56 7.35470 133.16025 4941 ft 213 kts 141°
2026-04-15 20:57 7.34319 133.16971 4939 ft 213 kts 141°
2026-04-15 20:57 7.33166 133.17913 4944 ft 213 kts 141°
2026-04-15 20:57 7.32027 133.18842 4943 ft 213 kts 141°
2026-04-15 20:57 7.30867 133.19782 4944 ft 214 kts 141°
2026-04-15 20:58 7.29702 133.20721 4946 ft 214 kts 141°
2026-04-15 20:58 7.28538 133.21655 4949 ft 214 kts 142°
2026-04-15 20:58 7.27375 133.22587 4946 ft 213 kts 142°
2026-04-15 20:58 7.26214 133.23513 4942 ft 213 kts 142°
2026-04-15 20:59 7.25052 133.24434 4944 ft 212 kts 142°
2026-04-15 20:59 7.23890 133.25351 4944 ft 212 kts 142°
2026-04-15 20:59 7.22730 133.26262 4944 ft 212 kts 143°
2026-04-15 20:59 7.21580 133.27162 4944 ft 212 kts 143°
2026-04-15 21:00 7.20410 133.28074 4945 ft 213 kts 143°
2026-04-15 21:00 7.19331 133.29007 4938 ft 191 kts 131°
2026-04-15 21:00 7.18591 133.30020 4934 ft 169 kts 115°
2026-04-15 21:00 7.18174 133.31062 4934 ft 153 kts 97°
2026-04-15 21:01 7.17977 133.32019 4915 ft 123 kts 102°
2026-04-15 21:01 7.17737 133.32776 4763 ft 109 kts 108°
2026-04-15 21:01 7.17465 133.33478 4508 ft 106 kts 109°
2026-04-15 21:01 7.17190 133.34138 4301 ft 99 kts 110°
2026-04-15 21:02 7.16910 133.34751 4096 ft 95 kts 118°
2026-04-15 21:02 7.16472 133.35246 3868 ft 95 kts 151°
2026-04-15 21:02 7.15844 133.35320 3609 ft 92 kts 212°
2026-04-15 21:02 7.15371 133.34981 3433 ft 80 kts 232°
2026-04-15 21:03 7.15065 133.34516 3182 ft 75 kts 268°
2026-04-15 21:03 7.15229 133.34071 2870 ft 75 kts 331°
2026-04-15 21:03 7.15705 133.33963 2672 ft 70 kts 348°
2026-04-15 21:03 7.16202 133.34048 2447 ft 75 kts 21°
2026-04-15 21:04 7.16488 133.34537 2150 ft 95 kts 83°
2026-04-15 21:04 7.16421 133.35191 1942 ft 95 kts 97°
2026-04-15 21:04 7.16128 133.35764 1746 ft 93 kts 139°
2026-04-15 21:04 7.15529 133.35963 1479 ft 88 kts 193°
2026-04-15 21:05 7.14946 133.35857 1245 ft 87 kts 208°
2026-04-15 21:05 7.14501 133.35520 1011 ft 77 kts 252°
2026-04-15 21:05 7.14560 133.35018 659 ft 74 kts 315°
2026-04-15 21:05 7.14930 133.34700 345 ft 74 kts 330°
2026-04-15 21:06 7.15398 133.34553 115 ft 68 kts 349°
2026-04-15 21:06 7.15593 133.34552 1 ft 0 kts 360°
2026-04-15 23:09 7.12805 125.64371 95 ft 0 kts 152°
2026-04-15 23:22 7.11844 125.63749 96 ft 0 kts 49°